Wetbulb
46.39 47.19 47.99 48.30 49.28 50.06 48.30 44.34 38.77 55.66 58.06 45.15 44.09 40.07 45.25 47.45 47.41 48.95 47.93 46.99 46.50 44.20 44.53 42.53 42.93 40.48 42.23 45.43 44.21 40.95 43.62 39.59 33.39 37.85 44.07 45.76 43.25 39.41 38.24 24.08 26.56 27.44 27.26 30.88
46.16 47.05 47.15 47.83 48.25 49.83 43.29 40.43 41.56 55.61 55.09 38.52 38.82 44.08 46.66 47.79 46.36 45.98 47.20 46.36 46.80 45.86 43.18 39.49 43.36 42.13 45.82 46.00 44.56 40.09 40.98 36.47 27.12 32.17 38.65 42.77 39.74 41.47 41.67 39.15 35.01 29.29 27.11 26.49
45.96 46.36 46.80 47.78 47.73 48.60 45.42 40.35 37.00 47.30 49.17 46.31 43.01 43.38 43.98 43.55 47.96 47.47 47.98 46.48 46.71 43.76 42.87 43.84 40.96 41.62 45.79 46.43 43.62 46.28 43.58 37.72 34.37 28.37 34.30 38.05 34.91 39.23 39.92 37.80 30.52 29.98 28.86 33.78
45.72 46.16 46.54 47.31 47.93 48.68 44.79 41.02 39.89 46.32 39.02 40.58 40.39 41.53 46.67 43.96 42.14 46.50 47.25 44.31 44.36 43.80 39.60 41.60 40.48 42.66 43.23 45.48 44.99 44.28 41.61 34.43 37.08 38.10 39.56 39.25 37.49 36.99 38.27 37.20 37.89 30.85 33.40 35.83
45.45 45.79 45.97 46.32 47.53 48.81 43.43 39.62 40.73 44.67 43.30 46.01 40.95 41.29 43.41 44.26 44.38 43.83 42.83 42.42 45.00 44.10 40.46 40.99 38.77 41.81 41.15 39.29 43.19 41.14 41.90 34.22 36.09 33.97 38.62 37.47 33.89 37.15 37.63 36.47 39.01 37.98 37.58 36.30
45.05 45.43 45.49 45.82 46.73 47.97 42.89 46.41 47.42 45.88 43.78 43.72 41.88 41.22 44.87 45.76 44.98 45.91 47.72 45.16 42.84 40.68 41.84 43.26 43.22 43.61 43.55 43.08 39.87 39.17 38.86 36.68 34.72 29.75 36.39 35.27 27.18 32.37 37.33 36.56 40.52 39.62 33.18 37.29
44.61 44.99 45.05 45.44 46.01 46.66 45.44 44.86 45.15 43.22 40.98 43.23 43.33 45.88 46.61 45.55 46.10 42.99 46.98 45.85 42.16 44.48 47.55 46.45 45.47 44.40 44.38 43.73 42.82 43.43 38.57 36.78 35.13 27.79 34.18 17.65 32.06 42.04 42.15 39.42 39.30 39.08 38.89 39.83
44.01 44.74 44.79 44.82 45.55 46.47 45.39 44.96 45.17 42.91 36.91 41.53 44.25 45.76 45.44 46.13 45.80 44.72 44.57 46.22 46.03 46.91 44.81 39.60 37.08 36.86 38.12 40.35 42.50 41.23 42.49 38.75 30.27 25.15 23.09 28.77 35.11 39.80 38.88 36.41 34.75 39.47 39.06 42.46
44.19 44.09 44.09 44.62 45.20 46.42 45.71 44.96 48.21 45.46 37.25 40.48 46.82 45.33 45.60 41.21 39.99 41.74 42.98 46.55 46.63 44.97 40.97 37.36 31.15 27.34 34.79 34.17 38.03 43.45 43.34 41.89 31.76 28.62 26.14 17.68 33.20 40.75 43.85 42.75 32.03 42.99 43.32 42.09
44.24 43.33 43.63 43.95 45.00 45.90 45.91 44.76 46.84 46.00 37.56 43.36 45.64 43.30 43.64 45.67 42.46 39.47 40.79 41.24 41.71 44.17 37.33 33.70 31.41 29.74 40.01 32.14 33.43 35.34 35.38 34.33 27.89 24.66 25.24 30.77 42.10 42.91 44.96 31.81 34.55 43.97 44.50 42.98
44.21 42.40 43.18 43.55 44.81 45.51 45.67 44.13 46.39 46.03 40.22 41.73 48.31 48.69 44.44 44.80 43.61 37.79 40.98 38.14 39.13 38.53 34.90 35.46 33.55 32.76 35.33 34.86 37.83 36.97 33.79 29.85 26.33 29.38 24.91 20.89 43.89 42.72 37.20 40.95 45.50 44.88 44.17 42.27
43.80 42.43 43.03 43.13 44.50 44.82 46.39 42.78 47.40 48.01 43.09 41.14 46.99 48.51 50.57 48.27 48.29 45.25 42.38 40.35 40.65 40.91 37.93 38.00 37.57 36.02 35.27 34.71 27.92 40.13 30.29 35.58 29.11 33.58 32.97 42.99 44.41 43.90 47.27 46.75 44.96 45.45 42.51 43.86
43.11 42.29 42.65 42.95 44.00 44.45 44.66 43.26 44.76 45.83 45.22 44.96 44.78 45.62 49.84 51.90 49.91 50.81 40.63 44.03 46.23 43.54 45.95 42.24 39.80 36.51 38.18 31.81 34.20 35.06 39.00 42.17 35.48 35.85 40.55 43.04 45.26 46.76 47.11 46.73 44.54 44.28 44.35 44.99
42.81 42.42 42.45 43.21 43.68 44.09 44.39 42.87 44.17 44.71 44.36 40.84 43.83 52.25 48.78 51.24 51.02 51.11 49.70 47.96 47.42 45.95 44.99 41.53 39.54 36.75 42.81 37.25 38.94 35.59 37.81 40.45 38.55 37.95 40.77 44.65 46.06 47.06 46.26 46.59 46.72 46.15 45.59 44.77
42.90 42.22 42.27 43.32 43.51 44.05 44.29 43.97 44.60 45.86 43.17 39.93 42.21 47.73 49.80 50.80 49.82 49.33 48.65 46.96 44.32 42.40 40.66 40.09 38.62 39.98 40.15 40.06 39.62 35.39 40.48 39.17 35.23 34.01 41.84 41.99 43.97 45.99 46.13 44.94 44.96 45.92 43.58 41.56
42.66 42.17 42.56 43.06 43.18 43.99 43.07 40.83 46.60 47.02 47.53 42.59 39.22 46.53 46.84 48.51 48.43 47.92 46.40 45.72 44.30 44.16 42.99 40.76 42.02 44.81 41.69 36.57 35.10 42.22 44.09 47.01 46.22 42.11 45.48 45.95 46.29 47.79 47.74 45.12 44.46 43.01 42.19 42.05
42.46 42.23 43.02 42.80 43.00 41.37 39.25 39.55 44.09 45.36 44.72 42.11 40.29 39.53 46.10 48.90 47.65 45.83 45.15 45.90 44.27 44.50 42.24 41.77 41.54 41.28 41.99 40.46 33.99 42.36 46.53 46.33 45.64 46.08 46.65 44.76 46.38 44.78 46.26 45.19 43.52 43.14 43.37 43.60
42.38 42.70 42.63 42.60 42.90 42.71 39.56 43.25 45.20 45.93 43.70 45.08 40.47 39.17 40.82 47.43 42.02 40.49 45.16 42.51 43.55 43.33 42.67 42.69 41.12 42.11 42.62 38.56 42.20 44.63 46.94 46.57 47.03 46.90 47.61 46.48 46.60 47.09 44.43 43.41 42.61 42.34 41.80 42.19
42.62 42.45 42.13 41.60 40.70 39.48 42.44 48.25 47.90 47.13 45.64 40.30 42.98 36.98 34.05 45.38 42.83 43.15 42.20 43.80 37.51 43.82 40.93 41.65 41.89 39.85 37.19 41.89 42.77 44.00 45.80 45.96 45.10 47.02 47.48 46.48 45.64 42.58 42.02 42.76 42.79 41.16 40.74 40.68
42.19 39.15 36.78 33.94 40.24 47.24 47.28 44.63 43.25 42.51 43.62 43.04 40.77 43.85 37.46 42.75 41.36 40.02 40.14 41.26 38.75 35.84 40.25 43.09 39.64 39.04 44.65 45.24 45.22 45.72 46.68 48.01 48.04 45.40 44.67 44.02 41.77 41.01 41.78 41.68 41.52 40.37 39.16 38.66
38.01 34.75 34.73 40.01 43.46 44.72 42.63 34.80 37.15 39.33 38.77 42.62 41.86 42.65 38.68 44.69 38.76 38.21 41.39 36.86 39.32 34.49 38.38 37.73 35.54 33.58 42.17 45.42 45.88 47.46 48.49 48.86 48.67 48.10 46.31 43.38 42.62 41.98 41.16 40.47 40.70 39.83 38.93 37.99
38.78 38.01 39.62 38.48 40.28 38.64 35.07 32.68 39.14 38.17 37.00 41.44 39.82 41.94 42.57 43.02 45.47 40.40 40.47 38.84 39.45 34.54 41.39 36.79 31.85 39.80 44.83 46.03 46.26 47.59 48.23 48.34 48.01 46.78 43.95 43.36 44.00 43.29 41.00 39.78 39.48 39.45 39.88 40.10
39.15 36.03 32.95 32.21 33.72 31.87 30.13 29.31 33.42 33.73 39.67 41.75 42.74 40.83 42.78 43.39 44.50 40.48 39.89 37.31 33.61 42.30 34.98 32.70 36.24 43.74 45.81 46.19 46.52 47.25 48.43 48.24 46.42 44.39 44.23 44.30 43.25 42.04 40.60 39.47 39.43 39.17 38.59 39.69
31.27 29.81 26.85 29.35 29.73 31.53 34.34 36.36 37.15 41.02 42.34 43.93 43.76 41.34 41.02 42.35 40.71 39.91 38.04 39.67 40.34 33.51 29.50 32.71 39.72 44.37 45.76 45.71 46.58 46.63 46.64 45.69 43.20 42.97 43.36 42.40 40.71 40.06 40.25 39.37 38.45 37.50 37.55 38.17
29.18 31.75 25.31 29.31 35.13 38.05 39.90 41.88 41.30 43.87 46.39 45.21 42.94 41.49 41.67 39.93 38.62 40.26 38.90 35.50 31.95 33.66 32.26 38.18 44.41 45.83 45.27 45.24 45.81 46.06 45.38 43.07 42.49 43.41 42.53 40.77 40.24 39.50 38.88 38.55 38.12 38.71 38.93 38.36
31.80 31.25 28.34 32.36 32.93 36.55 39.83 41.70 42.17 45.89 46.13 46.22 43.24 40.03 37.68 37.62 38.03 36.69 33.82 33.48 30.93 35.11 41.90 45.22 46.37 45.58 45.47 45.51 46.59 46.50 45.21 43.46 43.24 43.65 41.98 40.82 40.24 39.59 38.91 39.21 39.21 39.48 39.59 39.13
30.19 29.76 34.57 33.82 34.74 34.80 38.01 43.79 43.57 47.24 45.35 40.77 40.37 36.28 36.26 39.15 34.30 34.33 37.49 33.63 38.30 44.41 45.97 47.20 46.96 45.35 45.56 46.48 46.79 46.55 44.76 43.43 43.80 43.18 41.45 40.75 41.57 40.61 39.39 37.84 38.90 39.17 39.09 38.98
MSLP
1024.77 1024.21 1023.58 1022.83 1021.99 1020.60 1019.63 1019.36 1017.86 1015.47 1015.37 1016.07 1015.41 1014.63 1012.95 1011.34 1010.06 1009.35 1009.25 1009.19 1009.19 1009.61 1009.89 1010.50 1011.47 1013.24 1014.20 1014.52 1014.52 1014.67 1014.91 1014.56 1014.65 1014.24 1014.38 1014.08 1014.94 1016.73 1017.41 1019.30 1020.67 1020.61 1020.32 1020.00
1024.89 1024.33 1023.70 1022.99 1022.41 1021.79 1021.46 1019.71 1017.20 1015.47 1015.51 1015.71 1015.05 1013.70 1012.43 1011.42 1010.37 1009.75 1009.46 1009.61 1010.02 1010.20 1010.85 1011.70 1012.42 1013.77 1014.91 1014.82 1015.17 1015.76 1015.98 1015.71 1015.81 1015.43 1015.27 1015.56 1016.84 1017.33 1018.64 1019.36 1020.60 1020.61 1020.78 1019.84
1024.90 1024.42 1023.83 1023.10 1022.61 1022.05 1021.72 1020.09 1017.50 1016.16 1016.01 1015.19 1014.72 1013.70 1012.24 1011.25 1010.52 1010.24 1009.98 1010.34 1010.42 1010.87 1011.42 1011.99 1013.04 1014.27 1015.04 1015.27 1015.54 1015.95 1016.45 1016.62 1016.97 1017.27 1017.31 1017.32 1018.11 1018.31 1018.81 1020.09 1020.71 1020.21 1019.99 1019.34
1024.93 1024.51 1023.98 1023.35 1022.57 1021.87 1021.77 1019.80 1017.51 1015.94 1015.50 1014.92 1014.44 1013.86 1012.11 1011.19 1010.80 1010.72 1010.60 1010.82 1011.04 1011.36 1011.94 1012.57 1013.48 1014.00 1015.16 1015.50 1015.78 1016.24 1016.63 1017.49 1017.67 1017.87 1018.04 1018.31 1018.94 1018.97 1019.11 1019.27 1019.25 1019.83 1019.71 1019.36
1024.93 1024.52 1024.08 1023.47 1022.67 1021.64 1021.38 1019.94 1018.10 1016.44 1015.59 1014.23 1013.79 1013.40 1011.93 1010.93 1010.72 1010.89 1011.02 1011.42 1011.59 1012.10 1013.28 1013.78 1014.36 1014.49 1015.19 1015.75 1016.13 1016.49 1016.82 1017.84 1018.25 1018.92 1019.17 1019.64 1020.01 1019.90 1019.76 1019.74 1019.72 1019.75 1019.62 1019.94
1024.91 1024.66 1024.21 1023.66 1023.06 1022.22 1021.72 1020.22 1018.78 1017.61 1015.82 1014.53 1013.62 1012.86 1011.74 1011.04 1010.92 1011.35 1011.10 1011.81 1012.61 1013.47 1014.21 1014.43 1014.86 1015.03 1015.51 1015.95 1016.44 1016.75 1017.13 1018.00 1019.08 1020.37 1020.46 1020.51 1020.86 1020.79 1020.64 1020.78 1020.08 1019.81 1020.12 1020.08
1024.91 1024.68 1024.32 1023.96 1023.56 1023.40 1023.00 1021.97 1020.86 1018.91 1016.75 1015.22 1013.73 1012.53 1011.90 1011.80 1011.41 1011.75 1012.19 1012.48 1013.28 1014.46 1014.56 1014.88 1015.28 1015.76 1016.31 1016.39 1016.57 1016.63 1017.53 1018.40 1019.61 1021.25 1021.47 1021.83 1021.39 1020.36 1020.13 1020.12 1020.24 1020.17 1020.21 1020.12
1024.90 1024.78 1024.58 1024.22 1023.82 1023.33 1023.13 1022.47 1021.37 1020.09 1018.48 1016.39 1014.42 1012.76 1012.32 1012.22 1012.32 1012.75 1013.29 1013.46 1013.91 1014.45 1015.04 1015.85 1016.59 1017.08 1017.05 1016.97 1016.81 1017.02 1017.43 1018.53 1020.23 1021.55 1022.24 1022.22 1021.00 1020.06 1019.92 1020.11 1020.59 1020.42 1020.52 1020.58
1024.77 1024.78 1024.66 1024.29 1023.83 1023.38 1022.88 1022.14 1021.29 1020.81 1019.65 1016.70 1015.74 1013.96 1012.48 1012.95 1013.50 1014.24 1014.75 1014.89 1014.89 1015.11 1015.81 1016.31 1016.78 1017.18 1016.78 1017.15 1017.22 1017.15 1017.85 1018.89 1020.63 1021.69 1022.20 1022.12 1020.81 1019.93 1019.64 1019.83 1020.98 1020.87 1020.66 1020.82
1024.66 1024.69 1024.55 1024.27 1023.85 1023.49 1023.30 1022.19 1021.60 1021.26 1020.19 1017.28 1016.36 1014.90 1013.98 1013.27 1014.10 1015.32 1015.82 1016.00 1015.99 1016.19 1016.80 1017.10 1017.31 1017.51 1017.17 1017.35 1017.58 1017.96 1018.88 1020.09 1021.31 1021.86 1022.24 1021.50 1020.23 1019.72 1019.59 1020.61 1022.11 1021.06 1020.84 1020.89
1024.51 1024.60 1024.51 1024.28 1023.91 1023.56 1023.31 1022.18 1021.48 1021.49 1020.30 1018.24 1016.60 1015.99 1015.08 1014.12 1014.46 1015.58 1016.24 1016.80 1016.52 1016.94 1017.44 1017.20 1017.23 1017.71 1017.80 1018.05 1018.18 1018.69 1019.65 1020.67 1021.68 1021.90 1022.09 1021.39 1020.00 1019.88 1020.55 1021.26 1021.08 1020.87 1020.95 1021.02
1024.42 1024.51 1024.52 1024.35 1024.02 1023.65 1023.41 1022.53 1021.35 1021.12 1020.75 1018.47 1016.87 1016.24 1015.22 1014.85 1014.94 1015.04 1015.66 1015.77 1015.98 1016.14 1016.96 1016.70 1016.93 1017.77 1018.20 1018.67 1019.28 1019.28 1020.28 1020.58 1020.99 1021.47 1021.56 1020.87 1020.46 1020.55 1020.66 1020.73 1020.83 1021.13 1021.28 1021.46
1024.31 1024.44 1024.45 1024.30 1024.00 1023.70 1023.58 1022.93 1022.27 1021.34 1020.01 1017.75 1016.47 1015.29 1014.84 1014.60 1014.49 1014.34 1015.07 1015.39 1015.16 1015.62 1015.75 1016.37 1016.81 1017.64 1018.17 1018.84 1019.26 1019.79 1020.07 1020.19 1020.88 1021.02 1021.00 1020.85 1020.65 1020.49 1020.47 1020.61 1021.03 1021.26 1021.70 1022.31
1024.17 1024.29 1024.28 1024.14 1023.93 1023.59 1023.36 1023.04 1022.39 1022.14 1020.99 1018.95 1016.15 1014.80 1014.69 1014.58 1014.35 1014.23 1014.45 1014.93 1014.96 1015.25 1015.75 1016.37 1017.03 1017.81 1017.83 1018.43 1018.65 1019.57 1019.78 1020.09 1020.45 1020.82 1020.85 1020.87 1020.96 1020.91 1020.90 1021.47 1021.48 1021.92 1022.55 1023.02
1023.98 1024.12 1024.09 1023.97 1023.76 1023.42 1023.08 1022.64 1021.98 1021.73 1021.94 1019.92 1017.40 1015.37 1014.70 1014.58 1014.44 1014.52 1014.60 1015.09 1015.49 1016.13 1016.50 1016.98 1017.77 1017.81 1018.07 1018.35 1018.89 1019.67 1019.35 1019.41 1020.06 1020.46 1020.51 1020.72 1021.33 1021.46 1021.47 1021.90 1022.47 1022.66 1023.21 1023.96
1023.81 1023.93 1023.86 1023.76 1023.60 1023.31 1022.89 1021.97 1020.81 1021.33 1021.57 1020.76 1018.12 1015.51 1014.93 1014.72 1014.65 1014.87 1015.15 1015.42 1015.80 1016.15 1016.59 1017.26 1017.58 1017.50 1017.93 1018.59 1019.10 1018.93 1018.82 1018.84 1018.87 1019.72 1020.02 1020.63 1021.40 1021.99 1022.17 1022.45 1022.95 1023.45 1024.07 1024.57
1023.63 1023.69 1023.69 1023.62 1023.49 1023.54 1022.99 1021.94 1021.60 1021.48 1021.85 1020.78 1018.22 1016.06 1015.07 1014.79 1015.05 1015.38 1015.72 1015.71 1016.05 1016.26 1016.71 1017.21 1017.77 1018.05 1018.13 1018.13 1018.84 1018.77 1018.81 1019.11 1019.50 1019.68 1020.08 1021.26 1021.84 1022.38 1022.61 1023.04 1023.76 1024.31 1024.90 1025.25
1023.40 1023.48 1023.51 1023.40 1023.22 1022.98 1022.17 1020.24 1020.32 1021.15 1021.36 1019.85 1017.83 1016.32 1015.55 1015.10 1015.65 1016.17 1016.04 1016.52 1016.50 1016.63 1016.92 1017.03 1017.72 1018.03 1018.01 1018.04 1018.12 1018.47 1018.86 1019.38 1019.78 1020.29 1020.68 1021.55 1022.40 1022.67 1023.35 1023.82 1024.45 1025.12 1025.61 1026.07
1023.22 1023.34 1023.30 1023.14 1022.82 1021.95 1020.14 1019.13 1019.37 1020.12 1020.57 1019.02 1016.87 1015.93 1015.63 1015.19 1015.74 1016.04 1016.28 1016.54 1017.17 1016.80 1017.01 1017.10 1017.44 1017.64 1017.68 1017.69 1018.05 1018.49 1018.95 1019.50 1020.27 1020.84 1021.33 1021.89 1022.67 1023.43 1024.03 1024.70 1025.38 1025.93 1026.52 1026.97
1023.13 1023.32 1023.09 1022.34 1021.14 1020.52 1019.84 1019.40 1019.52 1019.86 1019.03 1018.27 1016.37 1014.53 1015.01 1015.21 1015.45 1016.12 1016.57 1016.45 1016.89 1017.15 1016.90 1016.58 1017.06 1017.60 1017.08 1017.33 1017.78 1018.33 1018.92 1019.62 1020.30 1021.05 1021.92 1022.65 1023.38 1024.12 1024.96 1025.62 1026.21 1026.78 1027.26 1027.64
1022.93 1022.80 1022.54 1021.68 1020.69 1020.10 1019.52 1019.27 1018.53 1018.15 1016.93 1015.53 1014.46 1013.96 1014.24 1014.55 1015.03 1015.60 1015.63 1016.05 1016.22 1016.58 1016.83 1016.85 1017.30 1017.73 1017.57 1017.45 1018.04 1018.64 1019.08 1019.82 1020.52 1021.24 1022.12 1023.00 1023.87 1024.85 1025.67 1026.43 1026.97 1027.35 1027.82 1028.27
1022.00 1022.46 1022.54 1022.17 1020.82 1019.65 1019.05 1018.07 1016.84 1015.63 1014.43 1013.26 1013.05 1013.12 1013.36 1013.80 1013.92 1014.71 1015.06 1015.27 1015.64 1016.15 1016.23 1016.91 1017.13 1016.76 1016.98 1017.48 1018.29 1018.89 1019.54 1020.16 1020.92 1021.74 1022.70 1023.72 1024.60 1025.39 1026.22 1026.91 1027.37 1027.86 1028.11 1028.36
1022.04 1022.43 1022.28 1021.31 1019.71 1018.32 1017.20 1015.65 1014.29 1012.87 1011.66 1011.47 1011.66 1012.59 1012.92 1013.40 1013.72 1014.15 1014.61 1014.99 1015.78 1015.61 1016.48 1016.43 1015.85 1016.14 1016.78 1017.55 1018.30 1019.22 1019.92 1020.60 1021.51 1022.50 1023.25 1024.31 1025.18 1025.98 1026.66 1027.24 1027.75 1028.18 1028.56 1028.80
1022.21 1021.97 1021.21 1019.81 1017.67 1016.21 1014.76 1013.39 1011.81 1010.72 1010.30 1010.56 1011.23 1012.06 1012.62 1013.07 1013.69 1014.10 1014.42 1014.61 1015.14 1015.71 1015.87 1015.39 1015.18 1015.43 1016.40 1017.45 1018.29 1019.22 1020.18 1021.08 1021.97 1022.89 1023.79 1024.76 1025.61 1026.45 1027.00 1027.58 1028.13 1028.63 1029.16 1029.42
1022.09 1021.52 1020.13 1017.75 1015.68 1014.38 1012.92 1011.97 1010.92 1009.82 1009.47 1010.14 1011.04 1011.88 1012.42 1013.11 1013.56 1013.57 1013.81 1014.22 1014.23 1013.94 1013.57 1013.36 1013.93 1015.01 1016.18 1017.24 1018.24 1019.29 1020.42 1021.34 1022.30 1023.19 1024.12 1025.06 1025.90 1026.61 1027.37 1027.91 1028.40 1028.84 1029.26 1029.60
1021.65 1020.64 1018.89 1016.75 1015.90 1013.99 1012.66 1011.39 1010.41 1009.18 1009.42 1010.13 1010.54 1011.46 1012.34 1012.65 1012.90 1013.02 1013.09 1013.23 1012.44 1011.73 1011.53 1012.24 1013.52 1014.91 1016.05 1017.12 1018.14 1019.29 1020.43 1021.38 1022.42 1023.39 1024.30 1025.23 1025.96 1026.60 1027.34 1027.90 1028.45 1028.94 1029.21 1029.63
1020.08 1018.25 1017.12 1016.65 1015.91 1014.67 1012.82 1011.00 1009.44 1008.61 1009.11 1009.76 1009.99 1010.31 1010.84 1011.11 1011.48 1011.76 1011.49 1011.12 1010.30 1010.18 1010.95 1011.82 1013.12 1014.47 1015.75 1016.95 1018.15 1019.38 1020.49 1021.51 1022.53 1023.46 1024.43 1025.24 1025.94 1026.70 1027.33 1027.93 1028.49 1028.89 1029.26 1029.59
Wind_Speed
16 18 20 21 22 25 2 3 2 4 5 2 4 3 4 5 5 3 3 2 5 5 7 7 6 6 5 7 5 5 6 0 2 5 13 17 9 9 6 4 3 2 4 4
14 16 19 19 19 17 5 4 4 2 3 3 4 6 9 7 3 4 1 1 5 6 4 5 6 7 3 7 5 3 5 5 4 9 7 10 7 12 13 5 3 2 3 5
14 16 18 19 18 17 5 3 3 1 2 3 2 4 9 5 2 4 3 3 2 2 4 4 4 6 2 4 4 2 2 2 3 2 2 4 3 2 10 4 3 1 3 5
12 15 17 19 19 18 3 3 5 2 4 4 7 4 6 6 5 2 2 2 4 1 3 5 5 6 6 4 4 0 3 4 6 8 10 11 11 11 14 3 4 5 1 11
10 14 16 18 20 22 1 3 4 5 6 5 8 5 5 7 5 6 4 2 9 11 6 5 4 6 5 4 4 3 2 1 3 6 9 11 6 12 15 10 9 11 14 8
8 12 15 17 19 15 3 5 5 3 6 6 1 5 5 4 8 2 4 11 12 12 7 8 7 8 7 5 3 2 2 2 3 2 4 4 7 5 6 3 3 9 7 2
5 9 13 15 17 12 2 3 4 4 5 4 2 6 8 5 4 7 9 12 9 4 6 6 7 8 6 5 5 3 3 3 3 3 1 4 8 7 4 8 8 8 7 8
3 7 11 14 15 15 2 3 4 4 5 8 11 12 7 9 8 8 11 6 8 7 6 5 5 2 3 3 3 2 4 3 3 5 1 4 6 1 1 5 5 4 8 9
2 5 9 12 15 15 4 4 4 2 4 4 13 7 8 6 6 9 6 8 6 6 2 1 4 4 3 4 4 3 3 5 5 0 3 2 4 2 7 8 3 9 7 5
3 3 8 12 14 13 5 5 2 3 3 6 12 6 3 5 6 5 5 3 5 6 2 1 3 1 3 3 5 3 3 3 3 2 3 2 1 5 4 4 1 1 3 1
4 2 6 10 13 13 5 7 5 2 3 9 6 9 7 7 5 6 6 4 4 2 1 3 1 4 3 5 3 2 4 3 1 2 4 3 1 4 5 4 1 2 4 5
6 2 4 8 12 13 9 4 6 7 4 7 7 11 6 2 2 3 3 5 5 6 1 2 3 4 2 5 2 3 2 5 5 6 5 3 9 8 6 4 2 3 7 9
6 2 4 7 10 12 8 4 4 4 4 6 1 2 4 4 2 4 5 3 2 2 4 1 1 5 4 3 2 4 2 2 4 6 2 7 7 4 4 3 4 10 12 15
7 3 4 6 10 12 9 3 2 2 4 4 4 1 1 1 5 4 4 2 4 3 3 2 1 3 2 1 5 5 6 4 5 3 6 7 6 4 8 14 11 16 15 13
7 4 4 6 10 12 7 5 4 4 3 3 5 7 2 2 2 4 4 2 3 2 2 2 1 1 4 2 5 1 3 5 5 5 7 7 6 10 12 11 13 13 13 15
8 5 4 7 10 10 4 3 2 3 1 4 4 3 3 4 4 5 4 2 1 1 3 2 2 1 4 3 3 4 2 9 11 7 9 15 12 12 8 12 13 15 14 12
8 5 5 8 9 3 4 2 1 6 2 3 4 1 3 5 4 1 2 3 1 2 1 1 4 1 3 1 4 6 12 12 9 8 12 13 13 8 8 14 16 15 12 11
8 6 7 10 12 10 7 6 15 5 3 5 4 1 3 4 2 1 2 0 3 4 2 2 3 1 1 1 8 12 15 11 9 12 15 15 10 7 12 13 12 12 10 10
7 6 9 4 3 3 4 6 8 5 3 4 3 6 5 3 3 3 2 3 1 2 2 3 5 3 3 11 12 13 14 10 14 15 14 11 11 13 13 13 12 11 11 9
4 2 2 3 4 11 9 1 2 4 4 5 4 3 4 6 3 2 4 2 4 2 5 3 2 1 7 12 8 10 16 17 14 16 10 11 11 12 14 12 11 11 9 7
3 3 3 4 14 3 3 3 4 4 5 5 5 4 5 3 5 4 4 4 4 3 5 6 3 1 7 9 10 15 15 14 13 11 12 12 14 14 12 10 9 8 7 7
4 2 2 3 4 3 5 4 4 6 6 5 5 5 5 3 4 4 2 4 2 4 4 4 3 5 13 13 16 14 14 17 17 17 17 15 14 12 10 8 8 7 7 6
1 2 2 3 5 7 7 8 5 5 5 6 5 7 5 2 1 2 3 3 4 5 2 5 5 14 15 16 16 17 15 16 16 16 14 16 14 11 9 9 7 8 7 6
2 3 5 6 6 7 7 5 5 5 5 10 11 4 5 3 3 3 4 5 4 3 4 7 8 19 17 17 15 17 18 16 16 16 15 14 13 11 9 8 7 7 7 6
2 3 6 7 6 6 6 9 3 3 9 9 8 3 4 2 3 3 3 4 5 8 7 6 14 20 20 18 17 18 16 16 15 14 14 13 13 11 9 8 8 7 6 6
3 7 6 8 7 8 7 7 6 4 8 9 2 5 5 4 5 4 7 5 7 6 5 12 17 20 20 19 18 17 16 16 15 13 13 13 11 12 10 8 7 7 6 6
6 6 7 9 7 10 9 8 5 5 12 11 4 6 8 4 4 5 7 6 5 8 12 14 21 23 21 19 18 17 17 16 15 15 13 11 11 11 9 9 7 8 7 7
Wind_Direction
348 346 349 349 345 341 71 262 256 210 114 117 216 213 203 258 308 123 288 273 12 39 32 26 59 96 41 358 324 2 358 23 310 278 64 40 39 43 54 96 231 194 153 235
346 345 348 348 350 2 323 280 251 206 114 182 244 261 247 248 312 320 358 116 40 17 64 70 66 91 44 22 57 56 322 343 16 344 353 39 46 358 27 100 134 203 100 263
344 345 349 348 344 348 331 288 287 110 182 267 270 282 241 174 130 319 47 83 2 201 155 99 132 112 103 88 57 42 52 325 88 119 15 194 38 358 93 89 284 160 200 137
342 346 351 349 346 338 318 248 258 41 215 246 213 307 301 203 166 227 269 205 243 356 136 139 129 117 131 184 130 3 71 53 27 39 36 60 38 19 17 352 248 141 178 89
338 346 352 351 348 336 219 289 341 336 291 282 172 213 278 203 155 150 214 238 64 54 64 79 84 101 49 75 74 61 346 351 67 38 57 70 48 19 25 22 42 88 101 82
335 347 353 356 0 353 333 321 318 305 278 304 123 223 253 348 112 358 28 112 85 67 83 92 100 88 79 84 109 51 55 95 68 31 39 10 22 332 71 129 12 68 72 114
338 348 353 358 359 8 292 299 290 298 296 329 271 237 235 149 118 119 80 88 91 131 130 96 69 90 111 96 82 67 115 93 109 161 12 33 240 273 44 88 59 56 45 48
324 349 352 353 355 351 310 289 306 329 306 336 321 283 123 91 71 73 75 53 131 154 126 92 99 86 104 84 84 76 46 74 61 106 86 236 321 349 76 82 55 70 71 46
279 344 354 352 354 347 322 273 267 262 302 263 342 294 112 112 85 51 62 22 15 54 40 255 150 183 173 136 156 189 79 93 113 115 107 151 221 40 49 78 18 47 75 66
244 333 350 351 352 348 329 281 289 289 292 270 342 358 345 113 83 99 64 38 22 50 337 250 142 193 11 164 133 177 61 18 108 55 101 270 124 85 46 53 237 39 34 28
223 293 341 347 349 345 340 279 280 248 284 293 317 344 1 353 63 133 197 59 313 74 16 159 215 117 233 60 53 85 149 130 211 65 82 323 63 66 89 167 129 55 349 43
199 249 322 338 344 341 343 283 346 328 228 256 318 284 261 316 327 126 135 178 169 204 162 11 93 79 84 134 201 33 37 153 175 130 178 106 71 116 119 122 82 348 69 41
186 216 307 328 335 336 326 292 320 299 272 283 177 268 188 41 300 236 121 282 186 45 164 195 197 94 124 151 164 96 70 39 107 83 49 101 92 67 118 170 66 72 65 76
188 205 301 320 325 325 313 286 309 277 277 282 287 159 176 167 304 61 99 146 14 92 56 67 111 107 63 31 151 120 194 160 149 97 125 90 78 52 67 67 71 73 70 65
192 214 293 309 321 319 301 261 233 210 286 316 289 312 121 213 267 96 80 68 87 93 29 38 104 99 66 18 73 71 166 191 137 195 169 130 109 78 81 80 74 86 80 71
193 222 274 299 316 325 290 289 86 194 322 285 282 227 168 205 195 133 146 238 307 178 129 150 54 45 98 128 125 198 234 95 104 128 124 98 101 87 85 87 85 75 75 84
196 234 249 283 301 296 242 261 333 344 6 248 267 193 229 175 149 136 62 7 268 109 86 97 123 226 84 238 124 181 106 102 108 117 111 95 98 99 96 96 90 86 80 73
208 226 262 288 295 280 269 236 246 163 256 262 263 115 71 149 114 87 148 63 13 349 166 33 112 69 192 68 130 119 117 128 122 98 99 102 117 119 96 92 90 86 82 73
202 250 293 287 221 237 241 220 160 154 272 300 268 148 192 148 200 145 15 141 167 249 157 223 109 189 212 151 138 137 145 126 125 121 120 114 110 100 96 91 90 87 77 71
207 263 237 247 218 320 292 134 173 186 219 223 245 188 167 135 168 175 135 184 170 155 241 110 132 2 122 132 133 122 124 124 128 113 125 114 98 97 92 93 85 83 85 77
210 214 237 305 301 229 204 208 197 204 221 211 230 180 131 238 134 166 176 204 178 150 235 124 205 180 154 134 114 122 132 138 128 123 106 105 106 108 105 95 98 105 102 100
139 160 245 285 247 217 188 217 220 198 220 192 166 170 150 189 137 146 209 181 129 219 161 118 203 192 147 129 131 120 116 123 124 116 114 111 110 111 107 104 103 97 100 89
111 212 254 216 221 203 198 203 207 191 198 165 150 144 131 70 159 126 148 142 207 111 86 212 210 148 143 131 131 126 130 123 118 119 113 115 116 106 112 111 96 86 69 69
198 228 253 236 188 221 204 214 184 215 160 139 147 125 129 176 109 173 144 198 119 185 193 221 163 152 138 140 137 131 132 128 124 124 122 122 120 118 111 106 104 101 88 70
212 237 244 247 247 252 239 243 253 235 146 137 126 57 97 151 136 222 130 158 225 198 215 172 155 148 139 142 138 133 136 132 132 132 131 128 126 126 120 117 120 116 112 104
227 230 256 267 277 278 262 249 231 176 136 136 138 143 149 194 183 168 199 184 219 232 153 144 145 140 144 142 139 139 139 138 138 138 136 135 134 134 133 129 127 131 127 103
233 233 217 257 258 263 269 278 199 160 150 164 181 146 184 164 175 209 181 207 214 135 136 145 144 146 146 143 140 141 143 142 143 140 141 136 132 129 129 130 128 115 115 115